Regional Weather Roundup
Issued by NWS

Home | Current Version | Previous Version | Text Only | Print | Product List | Glossary On
Versions: 1 2 3 4 5 6 7 8 9 10 11 12 13 14 15 16 17 18 19 20 21 22 23 24 25 26 27 28 29 30 31 32 33 34 35 36 37 38 39 40 41 42 43 44
000
ASPQ40 PGUM 020312
RWRPQ
WEATHER ROUNDUP FOR THE MARIANAS AND MICRONESIA
NATIONAL WEATHER SERVICE TIYAN GU
100 PM CHST THU OCT 02 2014

GUZ001>004-020400-
MARIANA ISLANDS-

CITY           SKY/WX    TMP DP  RH WIND       PRES   REMARKS
GUAM AIRPORT   HVY RAIN  81  79  94 S13G21    29.67S FOG
ANDERSEN AFB   CLOUDY    82  79  89 S22G28    29.66  HX  93
ROTA AIRPORT   PTSUNNY   84  79  84 S17G23    29.66F HX  96
TINIAN AP      PTSUNNY   84  79  84 S15G24    29.64F HX  96
SAIPAN AP      MOSUNNY   84  79  84 S14G24    29.66F HX  96

$$

PMZ161-020400-
REPUBLIC OF PALAU-

CITY           SKY/WX    TMP DP  RH WIND       PRES   REMARKS
KOROR AP       PTSUNNY   84  75  74 SW15G24   29.72F HX  92
KOROR WSO      CLOUDY    84  75  74 SW12      29.72F HX  92

$$

PMZ171>174-020400-
FEDERATED STATES OF MICRONESIA-

CITY           SKY/WX    TMP DP  RH WIND       PRES   REMARKS
YAP AIRPORT    CLOUDY    86  77  74 SW16G23   29.67F HX  97
CHUUK AP       CLOUDY    88  81  79 VRB3      29.72F HX 105
POHNPEI AP     NOT AVBL
POHNPEI WSO    LGT RAIN  75  75 100 W6        29.78F
KOSRAE AP      NOT AVBL

$$

PMZ181-020400-
REPUBLIC OF THE MARSHALL ISLANDS-

CITY           SKY/WX    TMP DP  RH WIND       PRES   REMARKS
KWAJALEIN AP   LGT RAIN  79  75  89 W3        29.72F
MAJURO AP      NOT AVBL
MAJURO WSO     LGT RAIN  81  75  83 VRB3      29.72F

$$



USA.gov is the U.S. government's official web portal to all federal, state and local government web resources and services.